Regional Weather Roundup
Issued by NWS

Home | Current Version | Previous Version | Text Only | Print | Product List | Glossary Off
Versions: 1 2 3 4 5 6 7 8 9 10 11 12 13 14 15 16 17 18 19 20 21 22 23 24 25 26 27 28 29 30 31 32 33 34 35 36 37 38 39 40 41 42 43 44 45 46 47 48 49 50

000
ASUS45 KSLC 230310
RWRUT

UTAH REGIONAL WEATHER ROUNDUP
NATIONAL WEATHER SERVICE SALT LAKE CITY UT
900 PM MDT TUE JUL 22 2014

UTZ001>011-023>025-230400-

NORTHERN UTAH

CITY           SKY/WX    TMP DP  RH WIND       PRES   REMARKS
HILL AFB       CLEAR     88  43  20 N8        30.12F
LOGAN          NOT AVBL
OGDEN          CLEAR     86  40  19 N7        30.08F
PROVO AIRPORT  CLEAR     84  54  34 VRB3      30.11R
SALT LAKE CITY PTCLDY    88  44  21 NW8       30.05F
VERNAL         CLEAR     78  44  29 W5        30.19S
WENDOVER       CLEAR     91  37  15 E14       30.02S
HEBER CITY     CLEAR     77  41  27 CALM      30.20R
WEST JORDAN    CLEAR     88  50  27 W8        30.11S

$$

UTZ012>022-026-027-230400-

SOUTHERN UTAH

CITY           SKY/WX    TMP DP  RH WIND       PRES   REMARKS
BRYCE CANYON   CLEAR     66  31  27 S6        30.41S
CEDAR CITY     CLEAR     83  32  16 SW8       30.21R
MILFORD        CLEAR     87  31  13 SW10      30.14S
MOAB/CYNLANDS  CLEAR     90  17   7 NW10      30.10S
PRICE          CLEAR     87  15   7 E7        30.25S
ST GEORGE      CLEAR     99  34  10 W10       30.00R HX  93
KANAB            N/A     86  36  16 W7        30.19R

$$

REGIONAL REPORTS     COLORADO/ARIZONA

CITY           SKY/WX    TMP DP  RH WIND       PRES   REMARKS
CRAIG, CO      CLEAR     69  43  38 CALM      30.30S
GRAND JUNCTION CLEAR     86  22   9 N6        30.13S
RIFLE          CLEAR     83  22  10 E3        30.21R
MONTROSE       PTCLDY    82  43  25 S7        30.24R
CORTEZ         CLEAR     79  31  17 S7        30.24R
PAGE, AZ       PTCLDY    97  34  11 S6        30.09S HX  91
GRAND CANYON   MOCLDY    76  39  26 CALM      30.35R
KINGMAN        CLEAR     91  23   8 SW9       30.07R
FLAGSTAFF      PTCLDY    76  38  25 W5        30.38R

$$

REGIONAL REPORTS    NEVADA/IDAHO/WYOMING

CITY           SKY/WX    TMP DP  RH WIND       PRES   REMARKS
LAS VEGAS, NV  PTCLDY   103  17   4 SW13      29.89R HX  95
ELY            CLEAR     80  12   7 S14       30.23S
ELKO           PTCLDY    85  23  10 S8        30.05S
POCATELLO, ID  CLEAR     79  50  36 E3        30.12S
BURLEY         PTCLDY    80  43  26 SE3       30.03F
EVANSTON, WY   CLEAR     80  31  16 NW3       30.36S
ROCK SPRINGS   CLEAR     81  24  12 E3        30.34S

$$


USA.gov is the U.S. government's official web portal to all federal, state and local government web resources and services.